星链-4760 (STARLINK-4760 )

导读

STARLINK-4760是美国太空探索技术公司(SpaceX)星链卫星互联网项目的一员,于2022年9月19日发射升空,属于星链低轨卫星星座的组网卫星。它运行在近地轨道,承担卫星互联网信号中继任务,可为全球偏远地区等提供高速网络接入服务,是星链规模部署进程中的一颗典型卫星。

基本信息
目录编号:
53828
目录名称:
STARLINK-4760
国际标识:
2022-114L
轨道中心:
EARTH
卫星名称:
星链-4760
卫星全名:
星链-4760 (STARLINK-4760 )
卫星状态:
在轨 (已飞行1446 天)
发射日期:
2022-09-19 UTC
国别 :
美国 (US)
星等 :
--
轨道信息
数据来源 国际轨道数据 AOE轨道数据
星历时间 2026-09-03T12:32:58+0800
1天前
查看轨道信息
2026-09-03T22:00:00+0800
16小时前
查看轨道信息
半长轴 6837.888km 6837.817km
偏心率 0.0001309 0.0001385
轨道倾角 53.161° 53.159°
近地点辐角 100.374° 80.825°
升交点赤经 221.424° 219.583°
平近点角 259.742° 297.088°
近地点 458.855km 458.732km
远地点 460.647km 460.628km
周期 93.787分钟 93.786分钟
每日圈数 15.353941 15.35418
详细信息
固有亮度:
5
最大亮度:
2.5
卫星平台:
Starlink v1.5
覆盖范围:
全球
运营商:
太空探索技术公司
运营商所在国:
美国
制造商(研发单位):
太空探索技术公司
制造商所在国:
美国
使用方式:
暂无
卫星简介
星链(Starlink)计划是由太空探索技术公司(SpaceX)提出的一个巨型低轨卫星互联网星座项目,计划在2019年至2024年间在太空搭建由约1.2万颗卫星组成的“星链”网络,其中1584颗将部署在地球上空550千米处的近地轨道,并从2020年开始工作。该卫星仍在工作。
2D轨道图
3D轨道图
轨道高度分析图
轨道倾角分析图
轨道综合分析图
查看轨道综合分析图
交会数据列表
事件ID 空间交会对象 最接近时刻(TCA) 交会距离 交会风险概率(CRP) 交会风险指数(CRI) 操作
CDM_260904-192705-382806-601422
2026-09-04T
19:27:42+0000
2.046 km
极远距离
2.291738E-6 低风险 0.42
CDM_260903-063205-366805-382822
2026-09-03T
06:32:10+0000
2.425 km
极远距离
1.554378E-6 低风险 0.39
CDM_260904-175305-382806-610022
2026-09-04T
17:53:35+0000
2.621 km
极远距离
1.382302E-6 低风险 0.38
CDM_260904-132805-382806-472821
2026-09-04T
13:28:13+0000
2.929 km
极远距离
1.207159E-6 低风险 0.37
CDM_260905-064205-327305-382821
2026-09-05T
06:42:52+0000
2.881 km
极远距离
1.183458E-6 低风险 0.36
CDM_260904-100005-382806-002321
2026-09-04T
10:00:53+0000
2.870 km
极远距离
1.127067E-6 低风险 0.36